Weather History for KHZE - February, 2013

Change the Weather History Date:

Sunday, February 10, 2013

  Actual Average (KN60) Record (KN60)
Temperature  
Mean Temperature 20 °F -  
Max Temperature 30 °F 23 °F 39 °F (2005)
Min Temperature 10 °F 5 °F -22 °F (2008)
Degree Days  
Heating Degree Days 45    
Moisture  
Dew Point 19 °F    
Average Humidity 89    
Maximum Humidity 100    
Minimum Humidity 80    
Precipitation  
Precipitation 0.18 in - - ()
Sea Level Pressure  
Sea Level Pressure 29.83 in    
Wind  
Wind Speed 7 mph (NNW)    
Max Wind Speed 25 mph    
Max Gust Speed 36 mph    
Visibility 6 miles    
Events Fog , Rain , Snow    
Averages and records for this station are not official NWS values.
T = Trace of Precipitation, MM = Missing Value Source: NWS Daily Summary

Daily Weather History Graph

Daily Weather History Graph

Search for Another Location

Airport or City:

Trip Planner

Search our weather history database for the weather conditions in past years. The results will help you decide how hot, cold, wet, or windy it might be!

Date:

Astronomy

Feb. 10, 2013 Rise Set
Actual Time 7:58 AM CST 6:02 PM CST
Civil Twilight 7:26 AM CST 6:34 PM CST
Nautical Twilight 6:50 AM CST 7:10 PM CST
Astronomical Twilight 6:15 AM CST 7:46 PM CST
Moon 7:44 AM CST (2/10) 7:03 PM CST (2/10)
Length of Visible Light 11h 07m
Length of Day
10h 04m
New Moon, 0% of the Moon is Illuminated
Feb 10
New Moon
Feb 17
First Quarter
Feb 25
Full
Mar 4
Last Quarter
Mar 11
New

Hourly Weather History & Observations

Time (CST) Temp. Windchill Dew Point Humidity Pressure Visibility Wind Dir Wind Speed Gust Speed Precip Events Conditions
12:15 AM 12.2 °F - 8.6 °F 85% 29.81 in 4.0 mi Calm Calm - N/A   Overcast
12:35 AM 10.4 °F 4.0 °F 8.6 °F 92% 29.81 in 4.0 mi ENE 3.5 mph - N/A   Overcast
12:55 AM 12.2 °F - 10.4 °F 92% 29.81 in 0.5 mi Calm Calm - N/A Fog Light Freezing Fog
1:15 AM 14.0 °F 8.2 °F 10.4 °F 86% 29.80 in 0.2 mi East 3.5 mph - N/A Fog Light Freezing Fog
1:35 AM 14.0 °F - 10.4 °F 86% 29.80 in 0.5 mi Calm Calm - N/A Fog Light Freezing Fog
1:55 AM 14.0 °F - 10.4 °F 86% 29.80 in 0.2 mi Calm Calm - N/A Fog Light Freezing Fog
2:15 AM 14.0 °F 8.2 °F 12.2 °F 93% 29.79 in 2.0 mi West 3.5 mph - N/A   Overcast
2:35 AM 14.0 °F - 12.2 °F 93% 29.78 in 3.0 mi Calm Calm - N/A   Overcast
2:55 AM 15.8 °F - 12.2 °F 86% 29.78 in 4.0 mi Calm Calm - N/A   Overcast
3:15 AM 15.8 °F - 14.0 °F 93% 29.78 in 4.0 mi Calm Calm - N/A   Overcast
3:35 AM 15.8 °F - 14.0 °F 93% 29.77 in 4.0 mi Calm Calm - N/A   Scattered Clouds
3:55 AM 15.8 °F 10.2 °F 14.0 °F 93% 29.77 in 5.0 mi South 3.5 mph - N/A   Clear
4:15 AM 17.6 °F 12.3 °F 15.8 °F 93% 29.77 in 5.0 mi WNW 3.5 mph - N/A   Scattered Clouds
4:35 AM 15.8 °F 8.6 °F 14.0 °F 93% 29.77 in 4.0 mi West 4.6 mph - N/A   Overcast
4:55 AM 19.4 °F 11.5 °F 17.6 °F 93% 29.77 in 5.0 mi NNW 5.8 mph - N/A   Overcast
5:15 AM 21.2 °F 16.4 °F 19.4 °F 93% 29.77 in 1.8 mi NW 3.5 mph - N/A   Overcast
5:35 AM 23.0 °F - 21.2 °F 93% 29.77 in 1.0 mi Calm Calm - N/A   Overcast
5:55 AM 23.0 °F 13.9 °F 23.0 °F 100% 29.77 in 5.0 mi North 8.1 mph - N/A   Overcast
6:15 AM 24.8 °F 16.9 °F 23.0 °F 93% 29.77 in 9.0 mi NNW 6.9 mph - N/A   Overcast
6:35 AM 24.8 °F 19.1 °F 24.8 °F 100% 29.77 in 7.0 mi NW 4.6 mph - N/A   Overcast
6:55 AM 24.8 °F - 24.8 °F 100% 29.78 in 5.0 mi Calm Calm - N/A   Overcast
7:15 AM 24.8 °F - 24.8 °F 100% 29.78 in 5.0 mi Calm Calm - N/A   Overcast
7:35 AM 26.6 °F 20.0 °F 24.8 °F 93% 29.78 in 7.0 mi North 5.8 mph - N/A   Overcast
7:55 AM 26.6 °F 19.1 °F 24.8 °F 93% 29.78 in 7.0 mi North 6.9 mph - N/A   Overcast
8:15 AM 26.6 °F 22.6 °F 24.8 °F 93% 29.79 in 5.0 mi North 3.5 mph - N/A   Overcast
8:35 AM 26.6 °F 21.2 °F 24.8 °F 93% 29.78 in 5.0 mi NNW 4.6 mph - N/A   Overcast
8:55 AM 26.6 °F 16.8 °F 26.6 °F 100% 29.78 in 7.0 mi NW 10.4 mph - N/A   Overcast
9:15 AM 26.6 °F 16.8 °F 26.6 °F 100% 29.78 in 4.0 mi NNW 10.4 mph - N/A   Overcast
9:35 AM 28.4 °F 18.5 °F 26.6 °F 93% 29.78 in 1.5 mi NNW 11.5 mph - N/A   Overcast
9:55 AM 28.4 °F 19.7 °F 26.6 °F 93% 29.78 in 1.2 mi NNW 9.2 mph - N/A   Overcast
10:15 AM 28.4 °F 21.2 °F 26.6 °F 93% 29.78 in 4.0 mi NNW 6.9 mph - N/A   Overcast
10:35 AM 28.4 °F 20.4 °F 28.4 °F 100% 29.78 in 7.0 mi NNW 8.1 mph - N/A   Overcast
10:55 AM 30.2 °F 21.3 °F 28.4 °F 93% 29.78 in 8.0 mi North 10.4 mph 18.4 mph N/A   Overcast
11:15 AM 30.2 °F 17.4 °F 28.4 °F 93% 29.78 in 9.0 mi North 20.7 mph 25.3 mph N/A   Overcast
11:35 AM 30.2 °F 19.8 °F 28.4 °F 93% 29.79 in 7.0 mi NNW 13.8 mph 20.7 mph N/A   Overcast
12:15 PM 28.4 °F 15.4 °F 26.6 °F 93% 29.79 in 7.0 mi NNW 19.6 mph 25.3 mph N/A   Overcast
12:35 PM 28.4 °F 15.8 °F 26.6 °F 93% 29.79 in 8.0 mi NNW 18.4 mph 24.2 mph N/A   Overcast
12:55 PM 28.4 °F 16.2 °F 24.8 °F 86% 29.79 in 9.0 mi NNW 17.3 mph 25.3 mph N/A   Overcast
1:15 PM 28.4 °F 15.4 °F 24.8 °F 86% 29.79 in 7.0 mi NNW 19.6 mph 24.2 mph N/A Rain Light Freezing Rain
1:35 PM 28.4 °F 15.8 °F 24.8 °F 86% 29.80 in 7.0 mi NNW 18.4 mph 26.5 mph N/A Rain Light Freezing Rain
1:55 PM 28.4 °F 15.4 °F 24.8 °F 86% 29.80 in 6.0 mi NNW 19.6 mph 25.3 mph N/A Rain Light Freezing Rain
2:15 PM 26.6 °F 12.4 °F 23.0 °F 86% 29.80 in 7.0 mi NNW 21.9 mph 29.9 mph N/A   Overcast
2:35 PM 26.6 °F 12.7 °F 23.0 °F 86% 29.79 in 9.0 mi NNW 20.7 mph 28.8 mph N/A Rain Light Freezing Rain
3:15 PM 26.6 °F 11.4 °F 23.0 °F 86% 29.81 in 4.0 mi NNW 25.3 mph 32.2 mph 0.01 in Snow Light Snow
3:35 PM 26.6 °F 12.0 °F 23.0 °F 86% 29.82 in 4.0 mi NNW 23.0 mph 35.7 mph 0.03 in Snow Light Snow
3:55 PM 24.8 °F 10.7 °F 21.2 °F 86% 29.83 in 2.0 mi NNW 19.6 mph 29.9 mph 0.09 in Snow Light Snow
4:15 PM 24.8 °F 10.3 °F 19.4 °F 80% 29.85 in 2.5 mi NNW 20.7 mph 28.8 mph 0.03 in Snow Light Snow
4:35 PM 24.8 °F 11.5 °F 19.4 °F 80% 29.85 in 3.0 mi NW 17.3 mph 27.6 mph 0.06 in Snow Light Snow
4:55 PM 23.0 °F 8.3 °F 17.6 °F 80% 29.85 in 5.0 mi NW 19.6 mph 27.6 mph 0.07 in Snow Light Snow
5:15 PM 23.0 °F 9.2 °F 17.6 °F 80% 29.87 in 7.0 mi NW 17.3 mph 25.3 mph N/A Snow Light Snow
5:35 PM 23.0 °F 8.3 °F 17.6 °F 80% 29.88 in 7.0 mi NW 19.6 mph 27.6 mph 0.01 in Snow Light Snow
5:55 PM 21.2 °F 7.8 °F 17.6 °F 86% 29.89 in 7.0 mi NW 15.0 mph 20.7 mph 0.02 in Snow Light Snow
6:15 PM 21.2 °F 11.7 °F 17.6 °F 86% 29.91 in 8.0 mi WNW 8.1 mph 17.3 mph N/A Snow Light Snow
6:35 PM 21.2 °F 10.1 °F 17.6 °F 86% 29.91 in 10.0 mi WNW 10.4 mph - N/A   Overcast
6:55 PM 21.2 °F 9.5 °F 17.6 °F 86% 29.92 in 10.0 mi WNW 11.5 mph 17.3 mph N/A Snow Light Snow
7:15 PM 21.2 °F 7.8 °F 17.6 °F 86% 29.92 in 8.0 mi NW 15.0 mph - N/A Snow Light Snow
7:35 PM 21.2 °F 7.8 °F 17.6 °F 86% 29.92 in 9.0 mi NW 15.0 mph - N/A   Overcast
7:55 PM 21.2 °F 7.8 °F 17.6 °F 86% 29.92 in 9.0 mi WNW 15.0 mph 19.6 mph N/A   Overcast
8:15 PM 21.2 °F 8.9 °F 17.6 °F 86% 29.93 in 10.0 mi WNW 12.7 mph - N/A   Overcast
8:35 PM 21.2 °F 8.3 °F 17.6 °F 86% 29.93 in 10.0 mi NW 13.8 mph 18.4 mph N/A   Overcast
8:55 PM 21.2 °F 7.8 °F 17.6 °F 86% 29.94 in 10.0 mi North 15.0 mph - N/A   Overcast
9:15 PM 19.4 °F 6.6 °F 15.8 °F 86% 29.95 in 10.0 mi NNW 12.7 mph - N/A   Overcast
9:35 PM 19.4 °F 7.9 °F 14.0 °F 80% 29.96 in 10.0 mi NW 10.4 mph - N/A   Overcast
9:55 PM 19.4 °F 6.6 °F 14.0 °F 80% 29.96 in 10.0 mi NW 12.7 mph - N/A   Overcast
10:15 PM 19.4 °F 6.0 °F 14.0 °F 80% 29.97 in 10.0 mi NNW 13.8 mph - N/A   Overcast
10:35 PM 19.4 °F 5.5 °F 15.8 °F 86% 29.97 in 9.0 mi NNW 15.0 mph - N/A   Overcast
10:55 PM 19.4 °F 5.5 °F 15.8 °F 86% 29.98 in 7.0 mi NNW 15.0 mph - N/A   Overcast
11:15 PM 19.4 °F 6.0 °F 15.8 °F 86% 29.98 in 6.0 mi NW 13.8 mph - N/A   Overcast
11:35 PM 19.4 °F 6.6 °F 15.8 °F 86% 29.98 in 7.0 mi NW 12.7 mph - N/A   Overcast
11:55 PM 19.4 °F 6.6 °F 15.8 °F 86% 29.98 in 7.0 mi NW 12.7 mph - N/A Snow Light Snow